[[[{"header":{"parameterUnit":"kt","parameterCategory":2,"dx":1,"dy":1,"la1":30.253999710083008,"la2":30.299108505249023,"lo1":-89.0895004272461,"lo2":-89.04439544677734,"nx":28,"ny":28,"refTime":"2022-10-10T21:00:00:Z","depth":0,"parameterNumber":1,"parameterNumberName":"U-component_of_WINDS"},"data":[-7.9624,-7.967,-7.9606,-7.9629,-7.9575,-7.9581,-7.9562,-7.9531,-7.949,-7.949,-7.9478,-7.9418,-7.9351,-7.9323,-7.9307,-7.928,-7.928,-7.9345,-7.9303,-7.907,-7.9034,-7.8999,-7.8985,-7.9345,-7.9345,-7.9555,-7.9557,-7.9558,-7.9465,-7.9412,-7.9405,-7.9354,-7.9347,-7.9247,-7.9198,-7.92,-7.9207,-7.9156,-7.9139,-7.9134,-7.912,-7.9029,-7.9006,-7.9027,-7.8979,-7.9026,-7.9025,-7.9017,-7.8765,-7.875,-7.9066,-7.9066,-7.9066,-7.9066,-7.9066,-7.9065,-7.9159,-7.9188,-7.9119,-7.9109,-7.9065,-7.9032,-7.9049,-7.8972,-7.8964,-7.893,-7.8852,-7.8859,-7.8795,-7.8733,-7.8695,-7.87,-7.8636,-7.8667,-7.8675,-7.8686,-7.8708,-7.8423,-7.8692,-7.869,-7.8689,-7.8688,-7.8688,0,-7.8915,-7.8859,-7.8845,-7.8814,-7.8802,-7.8771,-7.8731,-7.874,-7.8595,-7.8594,-7.8587,-7.8572,-7.8543,-7.853,-7.8491,-7.8444,-7.834,-7.832,-7.8342,-7.8383,-7.8426,-7.8408,-7.8004,-7.8314,-7.831,-7.8308,-7.8306,-7.8304,-7.8605,-7.8645,-7.8538,-7.8538,-7.8499,-7.85,-7.8487,-7.8355,-7.8348,-7.8279,-7.8312,-7.8295,-7.8275,-7.8275,-7.8184,-7.8162,-7.8112,-7.8238,-7.8108,-7.8145,-7.8118,-7.8119,-7.8124,-7.8267,-7.8272,-7.8276,-7.8279,0,-7.8438,-7.8327,-7.8367,-7.8256,-7.8229,-7.8279,-7.8184,-7.8207,-7.8128,-7.8149,-7.8146,-7.8023,-7.8018,-7.7905,-7.7876,-7.7818,-7.7902,-7.7851,-7.7925,-7.791,-7.8015,-7.8008,-7.8365,-7.8406,-7.8027,-7.8031,-7.8034,0,-7.8131,-7.8188,-7.802,-7.8049,-7.8109,-7.7973,-7.8036,-7.7974,-7.7913,-7.7929,-7.7789,-7.7807,-7.7658,-7.766,-7.7573,-7.7621,-7.7614,-7.7573,-7.755,-7.7588,-7.7594,-7.7584,-7.7569,-7.7491,-7.7489,-7.7487,-7.7486,0,-7.7883,-7.7857,-7.7903,-7.7879,-7.7765,-7.779,-7.7743,-7.7673,-7.7661,-7.7626,-7.7618,-7.7588,-7.7572,-7.7552,-7.7441,-7.7358,-7.7495,-7.7357,-7.7454,-7.7458,-7.7493,-7.7493,-7.7834,-7.7484,-7.7483,-7.7483,-7.7482,0,-7.7619,-7.7585,-7.7666,-7.7568,-7.7566,-7.7596,-7.7557,-7.7555,-7.7491,-7.7437,-7.7408,-7.7302,-7.733,-7.7203,-7.7242,-7.7165,-7.7158,-7.712,-7.7125,-7.7123,-7.6984,-7.7197,-7.753,-7.7563,-7.712,-7.7117,-7.7114,0,-7.7368,-7.7418,-7.7301,-7.738,-7.7388,-7.723,-7.726,-7.7206,-7.7137,-7.7134,-7.7056,-7.7053,-7.6933,-7.6916,-7.695,-7.6871,-7.6971,-7.6853,-7.6856,-7.6858,-7.6882,-7.7186,-7.7266,-7.7469,-7.7073,-7.7077,-7.7081,0,-7.7159,-7.7015,-7.7038,-7.7005,-7.6909,-7.6914,-7.6948,-7.6914,-7.6919,-7.6871,-7.6898,-7.6889,-7.6799,-7.6772,-7.6681,-7.6722,-7.6899,-7.662,-7.6616,-7.6678,-7.7041,-7.7118,-7.7152,-7.6829,-7.6834,-7.6838,-7.7048,0,-7.6792,-7.68,-7.6853,-7.6784,-7.6768,-7.6809,-7.6685,-7.6685,-7.6598,-7.6523,-7.6558,-7.6481,-7.6447,-7.6453,-7.6368,-7.6498,-7.6459,-7.6362,-7.623,-7.643,-7.6497,-7.6523,-7.6142,-7.6137,-7.6133,-7.613,0,0,-7.6581,-7.6589,-7.6457,-7.6483,-7.6462,-7.6295,-7.6352,-7.6311,-7.6234,-7.6225,-7.6149,-7.6127,-7.6067,-7.6123,-7.6176,-7.616,-7.6173,-7.6107,-7.6335,-7.6358,-7.638,-7.6453,-7.6483,-7.6123,-7.6121,-7.612,-7.6119,0,-7.6421,-7.6361,-7.6416,-7.6368,-7.6292,-7.6207,-7.6221,-7.6116,-7.607,-7.61,-7.5964,-7.5969,-7.5952,-7.5909,-7.5885,-7.6097,-7.5994,-7.6095,-7.6252,-7.63,-7.6329,-7.6353,-7.6432,-7.6462,-7.6109,-7.611,-7.611,0,-7.6195,-7.6117,-7.6129,-7.6069,-7.6017,-7.6028,-7.5859,-7.5875,-7.5882,-7.5698,-7.5731,-7.5672,-7.5602,-7.5669,-7.5694,-7.5626,-7.5839,-7.5747,-7.5768,-7.5769,-7.581,-7.5844,-7.5875,-7.5471,-7.5469,-7.5468,0,0,-7.6074,-7.6079,-7.5953,-7.6025,-7.6002,-7.5876,-7.5868,-7.578,-7.5719,-7.5696,-7.5616,-7.5563,-7.5551,-7.5547,-7.553,-7.562,-7.5596,-7.5674,-7.5704,-7.5729,-7.5744,-7.5791,-7.5825,-7.5461,-7.5461,-7.5461,0,0,-7.6016,-7.5872,-7.5794,-7.5862,-7.5809,-7.5689,-7.5739,-7.5641,-7.5612,-7.5593,-7.5445,-7.5424,-7.5484,-7.5431,-7.5359,-7.5481,-7.5353,-7.5367,-7.5514,-7.555,-7.558,-7.5593,-7.5176,0,0,0,0,0,-7.5787,-7.5889,-7.582,-7.5813,-7.5736,-7.5728,-7.5717,-7.5596,-7.5509,-7.5552,-7.547,-7.5358,-7.5362,-7.5295,-7.5291,-7.5372,-7.5378,-7.5393,-7.5407,-7.5617,-7.5656,-7.5689,0,0,0,0,0,0,-7.5783,-7.5774,-7.5817,-7.5704,-7.5685,-7.5722,-7.5548,-7.5518,-7.5501,-7.548,-7.5378,-7.5355,-7.5253,-7.5289,-7.5287,-7.5367,-7.5176,-7.5384,-7.5397,-7.5408,-7.563,-7.5662,-7.569,0,0,0,0,0,-7.5779,-7.5772,-7.5679,-7.5701,-7.5685,-7.555,-7.5543,-7.5517,-7.5502,-7.5374,-7.5348,-7.5412,-7.5258,-7.5248,-7.5287,-7.5371,-7.5177,-7.5176,-7.5392,-7.5402,-7.5411,-7.5646,0,0,0,0,0,0,-7.5776,-7.5748,-7.5673,-7.5664,-7.5653,-7.5545,-7.5524,-7.5517,-7.5394,-7.537,-7.5401,-7.5386,-7.5263,-7.5254,-7.5247,-7.538,-7.5178,-7.5177,-7.5177,-7.54,-7.5407,-7.5414,0,0,0,0,0,0,-7.5751,-7.5741,-7.5669,-7.5614,-7.5597,-7.5542,-7.5523,-7.5538,-7.5395,-7.5428,-7.5411,-7.5396,-7.5274,-7.526,-7.5253,-7.5282,-7.5178,-7.5178,-7.5177,-7.5177,-7.5406,-7.5412,0,0,0,0,0,0,-7.5745,-7.5736,-7.5616,-7.5603,-7.5588,-7.5474,-7.5552,-7.548,-7.5349,-7.5436,-7.5333,-7.5326,-7.5283,-7.5274,-7.5258,-7.5291,-7.5284,-7.5178,-7.5178,-7.5178,-7.5177,0,0,0,0,0,0,0,-7.5739,-7.5824,-7.5729,-7.5594,-7.558,-7.5578,-7.5575,-7.5572,-7.5347,-7.5341,-7.5335,-7.5329,-7.518,-7.518,-7.518,-7.5298,0,0,-7.5178,-7.5178,0,0,0,0,0,0,0,0,-7.5825,-7.5824,-7.5729,-7.5727,-7.5725,-7.5577,-7.5575,-7.5573,-7.5346,-7.5341,-7.5336,-7.5332,-7.518,-7.518,-7.518,0,0,0,0,0,0,0,0,0,0,0,0,0,0,0,-7.5729,-7.5727,0,-7.5577,-7.5575,-7.5573,-7.5345,-7.5341,-7.5337,-7.5333,-7.518,-7.518,-7.518,0,0,0,0,0,0,0,0,0,0,0,0,0,0,0,0,0,0,0,0,0,0,0,0,0,0,0,0,0,0,0,0,0,0,0,0,0,0,0,0,0,0,0,0,0,0,0,0,0,0,0,0,0,0,0,0,0,0,0,0,0,0,0,0,0,0,0,0,0]}],[{"header":{"parameterUnit":"kt","parameterCategory":2,"dx":1,"dy":1,"la1":30.253999710083008,"la2":30.299108505249023,"lo1":-89.0895004272461,"lo2":-89.04439544677734,"nx":28,"ny":28,"refTime":"2022-10-10T21:00:00:Z","depth":0,"parameterNumber":2,"parameterNumberName":"V-component_of_WINDS"},"data":[-4.9986,-5.0059,-5.0086,-5.0182,-5.0222,-5.0292,-5.0325,-5.0371,-5.0414,-5.05,-5.0554,-5.0587,-5.064,-5.071,-5.077,-5.0783,-5.0808,-5.0816,-5.0831,-5.0772,-5.0766,-5.0759,-5.0745,-5.082,-5.082,-5.089,-5.0891,-5.0891,-4.9944,-4.9984,-5.0042,-5.0116,-5.0166,-5.0175,-5.0233,-5.0275,-5.0337,-5.0389,-5.0443,-5.0521,-5.0585,-5.0636,-5.0702,-5.0737,-5.0745,-5.0753,-5.0753,-5.0762,-5.0699,-5.0683,-5.0746,-5.0746,-5.0746,-5.0746,-5.0746,-5.0746,-4.9875,-4.9917,-4.9978,-5.0041,-5.0084,-5.0133,-5.0178,-5.0218,-5.0274,-5.0346,-5.0365,-5.0435,-5.0492,-5.0583,-5.0619,-5.0675,-5.0671,-5.0688,-5.0693,-5.0698,-5.0701,-5.0603,-5.0687,-5.0687,-5.0686,-5.0686,-5.0686,0,-4.9834,-4.9853,-4.9909,-4.9974,-5.0021,-5.0073,-5.0125,-5.0153,-5.0201,-5.0245,-5.0311,-5.0353,-5.0437,-5.0502,-5.0568,-5.0603,-5.0618,-5.062,-5.0633,-5.0628,-5.0615,-5.0626,-5.0526,-5.0618,-5.0618,-5.0617,-5.0617,-5.0617,-4.9769,-4.9814,-4.9888,-4.9925,-4.996,-5.0017,-5.0056,-5.0094,-5.0135,-5.0203,-5.0238,-5.0303,-5.0358,-5.0458,-5.0503,-5.0565,-5.0573,-5.0607,-5.0583,-5.0576,-5.0579,-5.0577,-5.0584,-5.0611,-5.0612,-5.0613,-5.0613,0,-4.9731,-4.9773,-4.9851,-4.9919,-4.9938,-4.9983,-5.0042,-5.0084,-5.0117,-5.0181,-5.0198,-5.025,-5.0314,-5.0353,-5.0433,-5.0452,-5.0529,-5.0533,-5.0511,-5.0515,-5.0552,-5.0549,-5.0656,-5.0674,-5.0592,-5.0593,-5.0593,0,-4.9695,-4.9751,-4.9811,-4.9853,-4.9918,-4.9955,-5.0018,-5.0053,-5.0102,-5.0153,-5.0174,-5.0221,-5.0264,-5.0316,-5.0344,-5.0413,-5.0427,-5.0447,-5.0455,-5.0448,-5.0446,-5.0472,-5.047,-5.0465,-5.0464,-5.0464,-5.0463,0,-4.9633,-4.973,-4.9799,-4.9828,-4.9906,-4.9937,-4.9971,-5.0026,-5.0063,-5.0118,-5.0143,-5.0203,-5.0237,-5.0284,-5.032,-5.0303,-5.0404,-5.0388,-5.0425,-5.0424,-5.0448,-5.0447,-5.0528,-5.0462,-5.0462,-5.0462,-5.0462,0,-4.9611,-4.9666,-4.9758,-4.9825,-4.9849,-4.9893,-4.9956,-5.0003,-5.0059,-5.008,-5.0123,-5.0143,-5.0204,-5.0186,-5.0272,-5.024,-5.0272,-5.0296,-5.0299,-5.031,-5.029,-5.0335,-5.0406,-5.0417,-5.0317,-5.0316,-5.0315,0,-4.9532,-4.9635,-4.9669,-4.9755,-4.9809,-4.9831,-4.9881,-4.9929,-4.9961,-5.0012,-5.0046,-5.0103,-5.0097,-5.012,-5.0157,-5.0196,-5.0237,-5.0191,-5.0266,-5.0268,-5.0255,-5.0319,-5.0322,-5.0385,-5.0299,-5.0301,-5.0302,0,-4.9476,-4.957,-4.9582,-4.9618,-4.9688,-4.9732,-4.9788,-4.9853,-4.9885,-4.9935,-4.9985,-5.0063,-5.0063,-5.0101,-5.0122,-5.0159,-5.021,-5.0154,-5.0156,-5.0166,-5.0294,-5.0296,-5.0307,-5.0217,-5.0219,-5.022,-5.029,0,-4.9439,-4.9495,-4.953,-4.9605,-4.9645,-4.9699,-4.9742,-4.9779,-4.9797,-4.9829,-4.9901,-4.9949,-5.0014,-5.0034,-5.0051,-5.012,-5.0116,-5.0115,-5.0103,-5.0143,-5.0167,-5.0177,-5.0063,-5.0063,-5.0063,-5.0063,0,0,-4.9354,-4.9435,-4.9469,-4.9526,-4.9562,-4.9584,-4.964,-4.9677,-4.9751,-4.9776,-4.9769,-4.9886,-4.9926,-5.0009,-5.0025,-5.0049,-5.0067,-5.005,-5.0122,-5.0129,-5.0135,-5.016,-5.017,-5.0062,-5.0062,-5.0062,-5.0062,0,-4.9351,-4.939,-4.9444,-4.9485,-4.9546,-4.9578,-4.959,-4.9655,-4.9678,-4.9747,-4.9765,-4.9812,-4.9903,-4.9945,-4.9978,-5.004,-5.0052,-5.0056,-5.0078,-5.012,-5.0126,-5.0132,-5.0158,-5.0167,-5.0062,-5.0062,-5.0062,0,-4.9306,-4.9353,-4.9383,-4.9465,-4.9505,-4.9558,-4.9556,-4.9611,-4.9651,-4.9672,-4.974,-4.9773,-4.983,-4.9901,-4.9934,-4.9929,-5.0037,-5.0008,-5.001,-5.0016,-5.0059,-5.0067,-5.0074,-4.9982,-4.9981,-4.9981,0,0,-4.9297,-4.9348,-4.9411,-4.9467,-4.9491,-4.9539,-4.9571,-4.9592,-4.9643,-4.9664,-4.9706,-4.9755,-4.9809,-4.9844,-4.9896,-4.9967,-4.9984,-4.9997,-5.0001,-5.0004,-5.0011,-5.0054,-5.0062,-4.9979,-4.9979,-4.9979,0,0,-4.9292,-4.9368,-4.9377,-4.9448,-4.9496,-4.9562,-4.9595,-4.9607,-4.9659,-4.9657,-4.9695,-4.971,-4.9777,-4.9807,-4.978,-4.9893,-4.9879,-4.9887,-4.9871,-4.9876,-4.988,-4.9872,-4.9785,0,0,0,0,0,-4.9311,-4.9359,-4.9366,-4.9384,-4.9487,-4.9557,-4.9571,-4.9604,-4.9594,-4.962,-4.9658,-4.9667,-4.9801,-4.9778,-4.9795,-4.9826,-4.9958,-4.9962,-4.9965,-4.9962,-4.9967,-4.9971,0,0,0,0,0,0,-4.9318,-4.9341,-4.9365,-4.9432,-4.9455,-4.9556,-4.9548,-4.9558,-4.9592,-4.9593,-4.9659,-4.9669,-4.9697,-4.9771,-4.9787,-4.9815,-4.978,-4.9959,-4.9962,-4.9965,-4.9963,-4.9968,-4.9971,0,0,0,0,0,-4.9324,-4.9342,-4.9498,-4.9431,-4.9452,-4.9507,-4.9546,-4.9555,-4.9582,-4.964,-4.965,-4.9604,-4.9697,-4.9712,-4.9781,-4.9807,-4.977,-4.9775,-4.9961,-4.9964,-4.9966,-4.9966,0,0,0,0,0,0,-4.9329,-4.9351,-4.9503,-4.951,-4.9416,-4.9502,-4.9516,-4.9552,-4.9627,-4.9637,-4.9586,-4.9586,-4.9698,-4.9709,-4.9721,-4.9803,-4.9761,-4.9767,-4.9771,-4.9963,-4.9965,-4.9967,0,0,0,0,0,0,-4.9341,-4.9357,-4.9507,-4.9485,-4.9491,-4.9497,-4.951,-4.9572,-4.9627,-4.9569,-4.9571,-4.9585,-4.9681,-4.9708,-4.9716,-4.9812,-4.9755,-4.976,-4.9764,-4.9766,-4.9965,-4.9966,0,0,0,0,0,0,-4.9348,-4.9362,-4.9484,-4.9488,-4.9492,-4.9578,-4.9552,-4.9655,-4.9609,-4.9565,-4.9606,-4.9605,-4.9678,-4.9688,-4.9713,-4.9805,-4.981,-4.9755,-4.9759,-4.9761,-4.9763,0,0,0,0,0,0,0,-4.9354,-4.9257,-4.9459,-4.949,-4.9493,-4.9579,-4.9581,-4.9583,-4.9609,-4.9608,-4.9606,-4.9605,-4.9724,-4.973,-4.9736,-4.9799,0,0,-4.9755,-4.9757,0,0,0,0,0,0,0,0,-4.9252,-4.9256,-4.9459,-4.9461,-4.9462,-4.9579,-4.9581,-4.9583,-4.9609,-4.9608,-4.9607,-4.9606,-4.9726,-4.9731,-4.9736,0,0,0,0,0,0,0,0,0,0,0,0,0,0,0,-4.9459,-4.9461,0,-4.9579,-4.9581,-4.9582,-4.9609,-4.9608,-4.9607,-4.9606,-4.9727,-4.9731,-4.9735,0,0,0,0,0,0,0,0,0,0,0,0,0,0,0,0,0,0,0,0,0,0,0,0,0,0,0,0,0,0,0,0,0,0,0,0,0,0,0,0,0,0,0,0,0,0,0,0,0,0,0,0,0,0,0,0,0,0,0,0,0,0,0,0,0,0,0,0,0]}]]]